Temperature
19 20 19 19 19 19 19 18 18 18 18 18 18 18 18 18 18 18 18 18 18 18 18 18 18 18 18 18 18 18 18 18 18 18 18 18 18 17 17 17 17 17 17
20 20 19 19 19 19 18 18 18 18 18 18 18 18 18 18 18 18 18 18 18 18 18 18 18 18 18 18 18 18 18 18 18 18 18 18 17 17 17 17 17 17 17
19 20 19 19 19 19 18 18 18 18 18 18 18 18 18 18 18 18 18 18 18 18 18 18 18 18 18 18 18 18 18 18 18 17 17 17 17 17 17 17 17 17 17
20 19 19 19 19 19 18 18 18 18 18 18 18 18 18 18 18 18 18 18 18 18 18 18 18 18 18 18 18 18 18 17 17 17 17 17 17 17 17 17 17 17 17
20 20 20 19 19 18 18 18 18 18 18 18 18 18 18 18 18 18 18 18 18 18 18 18 18 18 18 18 18 18 17 17 17 17 17 17 17 17 17 17 17 17 17
19 19 20 19 19 18 18 18 18 18 18 18 18 18 18 18 18 18 18 18 18 18 18 18 18 18 18 18 18 17 17 17 17 17 17 17 17 17 17 17 17 17 17
20 19 20 19 19 18 18 18 18 18 18 18 18 18 18 18 18 18 18 18 18 18 18 18 18 18 18 18 18 17 17 17 17 17 17 17 17 17 17 17 17 17 17
20 20 20 20 19 19 18 18 18 18 18 18 18 18 18 18 18 18 18 18 18 18 18 18 18 18 18 18 18 18 18 17 17 17 17 17 17 17 17 17 17 17 17
21 20 19 19 19 19 19 19 19 19 18 18 18 18 18 18 18 18 18 18 18 18 18 18 18 18 18 18 18 18 18 18 17 17 17 17 17 17 17 17 17 17 17
21 20 19 19 19 19 19 19 19 19 18 18 18 18 18 18 18 18 18 18 18 18 18 18 18 18 18 18 18 18 18 18 17 17 18 18 17 17 17 17 17 17 17
21 21 20 19 19 19 18 19 18 18 18 18 18 18 18 18 17 18 18 18 18 18 18 18 18 18 18 18 18 18 18 18 17 18 18 18 17 17 17 17 17 17 17
21 21 20 20 19 19 19 19 18 18 18 18 18 18 18 18 18 18 18 18 18 18 18 18 18 18 18 18 18 18 18 18 18 18 18 18 18 17 17 17 17 17 17
21 21 20 20 20 19 19 19 18 18 18 18 18 18 18 18 18 18 18 18 18 18 18 18 18 18 18 18 18 18 18 18 18 18 18 18 18 17 17 17 17 17 17
21 21 21 20 20 19 19 19 19 19 18 18 18 18 18 18 18 18 18 18 18 18 18 18 18 18 18 18 18 18 18 18 18 18 18 18 18 17 17 17 17 17 17
21 20 20 19 19 19 19 19 19 19 19 18 18 18 18 18 18 18 18 18 18 18 18 18 18 18 18 18 18 18 18 18 18 18 18 18 18 17 17 17 17 17 17
21 20 20 19 19 19 19 19 19 19 19 18 18 18 18 18 18 18 18 18 18 18 18 18 18 18 18 18 18 18 18 18 18 18 18 18 17 17 17 17 17 17 17
21 20 20 19 19 19 19 19 19 19 18 18 18 18 18 18 18 18 18 18 18 18 18 18 18 18 18 18 18 18 18 18 18 17 17 17 17 17 17 17 17 17 17
21 20 20 19 19 19 19 19 18 18 18 18 18 18 18 18 18 18 18 18 18 18 18 18 18 18 18 18 18 18 18 18 18 17 17 17 17 17 17 17 17 17 17
21 20 20 20 19 19 19 19 18 18 18 18 18 18 18 17 18 18 18 18 18 18 18 18 18 18 18 18 18 18 18 18 18 18 18 17 17 17 17 17 17 17 17
21 20 20 20 19 19 19 19 18 18 18 18 18 18 18 18 18 18 18 18 18 18 18 18 18 18 18 18 18 18 18 18 18 18 18 18 17 17 17 17 17 17 17
21 20 20 20 20 19 19 19 18 18 18 18 18 18 18 18 18 18 18 18 18 18 18 18 18 18 18 18 18 18 18 18 18 18 18 18 18 17 17 17 17 17 17
21 20 20 20 20 19 19 19 18 18 18 18 18 18 18 18 18 18 18 18 18 18 18 18 18 18 18 18 18 18 18 18 18 18 18 18 18 18 17 17 17 17 17
22 21 20 20 20 20 19 19 19 18 18 18 18 18 18 18 18 18 18 18 18 17 18 18 18 18 18 18 18 18 18 18 18 18 18 18 18 18 17 17 17 17 17
22 21 21 20 20 20 19 19 19 19 18 18 18 18 18 18 18 18 18 18 18 18 17 17 17 17 17 18 18 18 18 18 18 17 18 18 18 17 17 17 17 17 17
22 21 21 20 20 20 20 19 19 19 19 18 18 18 18 18 18 18 18 18 18 17 17 17 17 17 17 17 17 18 18 18 18 17 17 17 17 17 17 17 17 16 16
22 22 21 20 20 20 20 19 19 19 19 18 18 18 18 18 18 18 18 18 18 17 17 17 17 17 17 17 17 17 17 18 18 17 17 17 17 17 17 17 16 16 16
Wind_Speed
15 15 14 13 13 14 14 14 14 14 14 14 14 15 15 15 16 16 16 16 17 17 16 16 16 16 16 16 16 16 16 17 17 17 17 17 16 15 14 15 16 16 17
18 16 15 14 13 14 14 14 13 13 14 13 14 14 14 14 15 15 16 16 16 16 16 16 15 15 15 15 15 14 14 15 16 16 16 15 14 14 13 14 15 15 15
18 17 15 13 13 13 13 13 13 13 13 13 13 13 13 14 14 15 15 15 15 16 15 15 15 14 14 14 13 13 12 13 14 15 15 14 13 14 15 15 16 16 14
17 17 15 13 13 13 13 13 13 13 13 13 13 13 13 13 13 14 14 14 15 15 14 14 14 14 14 13 12 11 11 11 11 11 11 12 13 14 14 15 15 15 14
18 18 15 14 13 13 13 13 13 12 12 12 12 12 13 13 13 14 14 14 14 14 14 14 14 13 13 12 10 9 8 8 7 8 11 12 13 14 14 14 14 14 13
17 18 15 14 13 12 12 12 12 12 12 12 12 12 13 13 13 14 14 14 14 13 13 13 13 12 11 10 8 6 5 4 3 9 12 14 14 14 14 13 13 13 12
16 18 16 14 13 13 13 13 12 12 12 12 12 12 12 13 13 13 13 13 13 13 13 12 11 11 10 8 6 5 3 1 3 11 12 14 14 14 13 13 12 12 12
16 17 16 14 13 12 12 12 11 11 11 11 12 12 12 12 12 12 12 12 12 12 11 11 10 9 8 6 4 3 1 2 7 12 14 15 15 14 13 12 12 11 11
15 15 15 15 13 12 12 11 11 11 10 10 10 11 11 11 11 11 11 11 11 10 10 10 9 8 7 5 3 0 1 3 5 10 14 14 15 14 13 12 12 11 11
12 12 11 14 14 13 12 11 10 10 9 9 9 9 9 10 11 11 11 10 9 9 8 8 8 7 6 4 2 2 3 2 5 11 13 14 14 13 12 12 11 11 10
9 9 9 10 10 11 12 12 10 10 9 8 8 8 8 7 9 9 10 9 8 8 7 7 7 7 6 5 4 4 4 2 7 11 13 15 14 13 12 11 10 10 10
8 8 8 8 7 7 8 10 8 7 8 6 6 7 7 5 7 9 10 9 8 7 7 7 8 7 7 6 7 7 5 4 8 11 13 15 14 12 11 11 10 10 9
7 7 9 8 5 5 5 6 5 6 6 5 5 4 5 6 7 8 8 8 8 8 6 7 8 8 7 4 3 4 2 3 8 11 13 14 13 12 11 11 10 9 9
6 6 7 8 5 5 4 3 4 4 4 4 4 2 4 3 3 4 4 6 6 5 4 4 4 4 3 2 1 2 2 4 9 10 12 14 13 12 11 11 10 10 9
6 6 7 7 6 4 4 3 2 3 4 5 5 3 3 2 2 2 1 1 1 3 4 2 1 1 1 1 0 1 2 4 8 10 11 13 13 12 11 11 10 10 9
7 6 6 6 6 4 2 1 2 2 4 4 4 4 2 2 3 2 0 0 1 2 3 1 1 1 0 0 0 0 1 3 5 9 11 12 12 12 12 11 11 10 10
7 6 5 5 5 4 2 1 1 1 3 3 4 4 2 2 2 1 1 1 1 1 2 2 1 2 2 2 1 1 1 2 4 7 10 11 11 12 12 12 11 11 11
7 6 4 4 6 5 2 1 1 0 3 3 3 3 1 1 1 1 1 1 1 1 2 1 2 1 1 2 2 2 2 3 4 5 7 9 11 11 12 12 12 12 12
7 6 5 4 5 5 4 3 1 1 1 1 2 2 2 1 1 1 1 0 2 2 1 2 1 1 2 2 2 2 3 3 3 5 6 8 10 11 12 13 14 13 12
7 6 5 4 4 4 3 2 1 1 1 2 2 2 2 2 2 1 2 2 3 1 1 1 2 2 2 3 3 3 3 3 3 3 4 5 8 10 12 12 13 13 14
7 6 5 4 4 3 2 2 2 2 3 2 3 4 4 4 2 1 2 1 2 1 2 2 2 3 3 3 1 1 2 2 3 3 3 3 4 7 9 11 12 11 11
8 7 6 5 5 4 3 2 2 2 2 2 1 2 3 3 3 3 2 2 2 2 2 2 2 2 3 2 2 1 1 1 1 3 2 3 2 3 4 7 8 8 8
9 7 6 5 5 4 3 2 1 2 0 0 1 1 2 3 3 2 2 2 2 2 2 3 2 3 3 3 2 2 1 1 1 1 2 2 2 2 2 4 6 6 6
8 8 7 6 4 4 3 2 2 2 1 1 1 1 1 2 2 3 2 3 3 2 2 3 3 3 3 3 3 2 2 2 2 1 1 1 1 1 1 1 3 5 6
9 9 8 7 5 4 3 2 1 0 1 0 1 1 1 1 2 2 2 2 2 3 3 3 2 2 2 3 2 2 2 2 3 3 2 1 0 0 1 1 2 3 4
9 9 9 7 5 5 4 3 1 0 1 1 1 0 1 0 1 1 1 1 2 2 2 3 2 2 3 3 3 2 2 2 2 2 2 2 1 1 1 1 2 3 4
Wind_Direction
94 92 87 83 81 79 80 81 79 77 78 79 79 79 79 80 81 84 88 90 92 94 93 93 92 91 93 95 96 97 98 99 102 102 103 104 105 106 108 110 106 103 106
100 97 89 86 85 83 83 82 81 79 79 80 82 83 84 84 85 87 89 92 94 95 95 95 95 94 96 98 101 103 105 108 112 112 111 109 108 108 106 104 104 108 109
106 105 95 87 87 87 86 83 82 81 81 81 82 83 85 86 87 89 91 93 96 97 97 98 98 97 99 101 104 108 113 119 123 124 120 112 109 106 104 104 107 110 111
104 101 95 93 89 88 88 86 84 83 83 83 83 85 87 88 88 90 93 95 97 99 100 100 98 98 101 105 109 113 118 127 135 134 122 115 114 111 111 112 112 114 114
98 99 99 96 93 91 89 86 85 85 84 84 84 87 89 89 90 91 95 96 97 99 100 101 99 99 101 106 111 118 125 132 136 127 110 108 111 118 117 117 117 116 116
112 107 104 100 96 94 93 90 89 88 86 85 86 88 91 91 91 93 95 98 98 100 102 102 101 101 102 107 111 119 122 119 122 122 121 119 117 121 121 121 120 119 119
111 112 111 106 100 96 95 93 91 90 88 89 91 92 93 93 93 95 97 98 99 100 102 103 103 104 106 107 106 110 108 82 128 111 114 116 120 123 122 122 122 123 124
115 114 118 115 110 104 100 98 96 95 94 95 96 98 99 99 99 99 100 101 101 101 103 107 108 109 111 113 108 107 87 10 112 110 110 115 123 125 124 126 125 124 126
112 120 131 131 124 119 112 108 106 104 104 104 105 104 107 108 108 107 106 105 105 105 108 112 114 117 121 125 127 118 330 359 101 113 114 118 126 127 129 131 130 128 129
110 117 130 132 134 136 129 125 122 120 119 119 120 121 123 123 123 122 117 112 113 114 117 123 123 128 138 148 180 261 296 330 126 109 109 123 130 133 135 135 136 137 136
99 110 121 119 134 138 137 136 142 141 140 143 145 148 153 156 139 135 118 126 128 131 135 139 142 147 158 179 212 244 266 203 116 105 113 130 136 137 140 141 142 144 145
110 118 105 108 115 120 121 137 149 149 151 170 144 166 177 154 139 126 134 142 147 153 158 164 166 173 192 194 209 226 234 165 121 114 125 138 140 142 144 146 149 150 152
122 109 106 96 98 95 109 138 137 130 151 162 147 155 137 133 134 137 152 161 171 176 185 175 189 201 213 210 181 193 189 118 116 116 134 145 145 149 152 155 158 160 163
118 113 107 103 86 57 64 91 128 132 143 127 124 125 114 122 128 137 160 169 178 179 175 169 193 190 173 138 133 180 151 131 114 117 141 150 153 156 161 166 168 172 174
120 108 94 99 96 74 48 357 86 96 100 100 100 69 74 112 102 107 80 111 172 162 159 165 156 129 151 186 236 82 61 90 121 133 144 158 160 165 169 174 177 180 182
135 128 123 119 114 114 109 29 18 73 91 103 110 102 58 60 90 97 129 175 192 138 135 161 168 176 190 307 243 302 93 108 124 135 150 164 170 174 177 182 186 189 191
138 132 136 136 128 139 145 172 187 154 118 101 101 109 94 76 89 131 183 232 227 174 154 176 228 218 202 205 211 209 162 150 143 149 157 165 175 185 190 193 195 197 199
140 140 154 153 142 154 161 181 229 148 94 102 104 116 121 113 134 249 217 227 269 237 186 187 225 244 241 221 202 212 177 172 168 175 173 175 174 181 190 196 198 203 206
139 144 149 137 143 160 165 177 188 117 86 157 154 147 162 207 220 247 267 237 261 267 237 234 180 227 262 267 228 214 209 193 184 197 181 185 182 177 180 193 198 202 209
141 143 148 146 151 157 163 177 196 187 208 225 184 162 187 232 233 262 246 236 262 260 258 249 223 230 244 251 255 226 221 202 196 184 192 192 189 186 184 184 190 204 213
147 151 156 158 152 164 176 188 194 201 215 218 210 190 200 220 232 245 285 255 268 264 252 249 233 238 241 228 247 282 272 241 203 189 198 195 191 189 186 178 182 192 201
155 161 159 162 165 181 177 189 196 196 206 198 215 163 199 208 216 229 226 250 254 259 257 264 248 247 264 240 217 219 270 288 268 229 189 195 206 166 164 171 176 185 191
158 159 156 156 154 168 169 184 193 163 236 170 185 190 214 210 207 241 240 254 265 252 244 253 247 238 245 264 247 198 197 222 299 281 215 209 180 170 156 155 163 175 182
155 151 140 144 144 154 169 196 206 183 191 207 195 167 206 216 216 229 234 242 257 262 251 255 228 240 239 251 259 234 222 188 177 267 294 246 197 182 198 174 151 163 177
157 151 146 142 145 149 158 167 198 236 198 193 124 131 223 220 219 226 229 240 247 256 259 266 278 261 253 254 263 249 237 231 201 205 230 242 247 93 172 152 107 138 164
154 150 145 141 141 147 156 158 159 238 13 25 28 61 260 220 234 226 225 229 243 251 267 264 262 259 259 263 275 276 260 247 229 221 219 208 211 262 225 177 142 130 140
Height
1533 1532 1532 1533 1533 1533 1533 1534 1534 1535 1535 1536 1536 1536 1537 1537 1538 1538 1539 1539 1540 1541 1542 1543 1545 1546 1547 1548 1549 1550 1552 1553 1554 1555 1556 1557 1559 1560 1561 1562 1563 1564 1565
1534 1534 1534 1535 1535 1536 1536 1536 1537 1538 1538 1538 1539 1539 1540 1540 1541 1541 1541 1542 1543 1544 1545 1546 1547 1548 1549 1550 1551 1553 1554 1555 1556 1557 1558 1559 1560 1562 1563 1564 1565 1566 1567
1535 1536 1536 1537 1537 1538 1538 1539 1539 1540 1540 1541 1541 1542 1542 1543 1543 1544 1544 1545 1546 1547 1548 1549 1550 1551 1552 1553 1554 1555 1556 1557 1558 1559 1560 1561 1562 1563 1564 1565 1567 1568 1569
1538 1538 1538 1539 1539 1540 1540 1541 1542 1542 1543 1543 1544 1544 1545 1545 1546 1546 1547 1548 1548 1549 1550 1551 1552 1553 1554 1555 1556 1557 1558 1559 1560 1561 1562 1563 1564 1565 1566 1567 1568 1569 1570
1539 1539 1540 1540 1541 1542 1542 1543 1544 1545 1545 1545 1546 1546 1547 1548 1548 1549 1549 1550 1551 1552 1552 1553 1554 1555 1556 1557 1558 1559 1560 1561 1562 1563 1564 1565 1566 1567 1568 1569 1570 1571 1572
1541 1541 1542 1542 1543 1544 1544 1545 1546 1547 1547 1548 1548 1549 1549 1550 1550 1551 1552 1552 1553 1554 1555 1555 1556 1557 1558 1559 1560 1561 1562 1563 1564 1565 1566 1567 1567 1568 1569 1570 1572 1573 1574
1544 1543 1544 1544 1545 1546 1547 1547 1548 1549 1549 1550 1550 1551 1551 1552 1553 1553 1554 1555 1555 1556 1557 1557 1558 1559 1560 1561 1562 1563 1564 1565 1566 1567 1567 1568 1569 1570 1571 1572 1573 1574 1575
1545 1545 1546 1546 1547 1548 1549 1549 1550 1551 1551 1552 1552 1553 1553 1554 1555 1555 1556 1557 1557 1558 1559 1559 1560 1561 1562 1563 1564 1565 1566 1566 1568 1569 1569 1570 1570 1571 1572 1573 1574 1575 1577
1547 1547 1547 1548 1549 1550 1551 1551 1552 1553 1553 1554 1554 1555 1556 1556 1557 1557 1558 1558 1559 1560 1561 1561 1562 1563 1563 1564 1565 1566 1567 1568 1569 1570 1570 1571 1572 1573 1573 1574 1576 1577 1578
1550 1550 1550 1551 1551 1552 1553 1553 1554 1554 1555 1556 1556 1557 1558 1558 1559 1559 1560 1560 1561 1562 1562 1563 1564 1565 1565 1566 1567 1568 1569 1570 1571 1571 1571 1572 1573 1574 1575 1576 1577 1578 1579
1552 1552 1553 1553 1554 1555 1555 1555 1556 1556 1557 1558 1558 1559 1559 1560 1561 1561 1562 1563 1563 1564 1565 1565 1566 1567 1567 1568 1569 1570 1571 1571 1572 1572 1573 1573 1574 1575 1576 1577 1578 1579 1580
1553 1554 1555 1555 1556 1557 1558 1557 1557 1558 1559 1559 1560 1561 1561 1562 1563 1564 1564 1564 1565 1566 1566 1567 1568 1568 1569 1570 1571 1572 1572 1572 1573 1573 1574 1574 1575 1576 1576 1577 1578 1579 1580
1554 1555 1555 1556 1557 1558 1559 1559 1560 1560 1560 1561 1562 1562 1563 1563 1564 1565 1565 1565 1566 1567 1567 1568 1569 1569 1570 1572 1572 1573 1573 1574 1574 1574 1574 1575 1576 1576 1577 1578 1579 1579 1580
1554 1555 1556 1556 1557 1558 1559 1560 1561 1562 1562 1563 1562 1563 1564 1565 1565 1566 1566 1566 1567 1568 1568 1569 1570 1571 1572 1573 1573 1574 1574 1574 1575 1575 1575 1575 1576 1576 1577 1578 1579 1579 1580
1554 1555 1556 1556 1557 1558 1559 1560 1562 1562 1563 1563 1563 1564 1564 1565 1566 1566 1567 1567 1568 1569 1569 1570 1571 1572 1572 1573 1574 1575 1575 1575 1575 1575 1575 1576 1576 1577 1577 1578 1578 1579 1580
1555 1555 1556 1556 1557 1558 1559 1560 1561 1562 1563 1563 1563 1564 1564 1565 1565 1566 1567 1567 1568 1569 1570 1570 1571 1572 1572 1573 1574 1574 1575 1575 1575 1575 1575 1576 1576 1577 1577 1578 1578 1579 1580
1554 1555 1556 1556 1557 1557 1559 1560 1561 1562 1563 1563 1563 1563 1564 1564 1565 1565 1566 1567 1568 1569 1570 1570 1571 1571 1572 1572 1573 1574 1574 1575 1575 1575 1575 1575 1576 1576 1577 1577 1578 1578 1579
1554 1555 1556 1557 1556 1557 1558 1559 1560 1561 1562 1563 1563 1563 1563 1564 1564 1565 1566 1566 1567 1568 1569 1569 1570 1571 1571 1572 1572 1573 1573 1574 1574 1574 1575 1575 1575 1576 1576 1577 1577 1578 1578
1554 1554 1555 1556 1556 1557 1557 1558 1559 1560 1561 1561 1562 1563 1563 1563 1563 1564 1565 1565 1566 1567 1568 1569 1569 1569 1570 1571 1571 1572 1572 1573 1573 1574 1574 1575 1575 1575 1575 1576 1576 1577 1577
1553 1554 1554 1555 1556 1556 1557 1558 1558 1559 1559 1560 1561 1561 1562 1562 1563 1563 1564 1564 1565 1566 1566 1567 1567 1568 1568 1569 1570 1571 1571 1571 1572 1572 1573 1574 1574 1574 1574 1574 1575 1575 1576
1552 1553 1554 1554 1555 1556 1556 1557 1557 1558 1559 1559 1560 1560 1561 1561 1561 1562 1562 1563 1563 1564 1564 1565 1566 1566 1567 1568 1568 1569 1569 1570 1570 1571 1572 1572 1573 1573 1573 1573 1573 1574 1574
1550 1552 1553 1553 1554 1555 1555 1556 1557 1557 1558 1558 1559 1559 1559 1559 1560 1560 1561 1561 1562 1562 1562 1563 1564 1564 1565 1566 1567 1567 1567 1568 1568 1569 1569 1570 1571 1571 1572 1572 1572 1572 1572
1550 1551 1552 1553 1553 1554 1555 1555 1556 1557 1557 1557 1558 1558 1558 1558 1558 1559 1559 1560 1560 1560 1561 1561 1562 1562 1563 1564 1565 1566 1566 1566 1566 1567 1567 1568 1569 1569 1570 1570 1570 1570 1570
1549 1550 1551 1552 1553 1553 1554 1554 1555 1556 1556 1557 1557 1557 1557 1557 1557 1557 1557 1558 1558 1558 1559 1559 1560 1560 1561 1561 1562 1563 1564 1564 1565 1565 1566 1566 1567 1567 1567 1568 1568 1567 1567
1548 1549 1550 1551 1552 1552 1553 1554 1554 1555 1556 1556 1556 1556 1556 1556 1556 1556 1556 1556 1556 1556 1557 1557 1558 1558 1559 1560 1560 1561 1561 1562 1562 1563 1563 1564 1565 1565 1565 1565 1565 1565 1566
1548 1549 1550 1550 1551 1552 1553 1553 1554 1554 1555 1555 1555 1555 1555 1555 1555 1555 1555 1554 1554 1555 1555 1555 1556 1556 1557 1557 1558 1559 1559 1560 1560 1561 1561 1562 1562 1563 1563 1563 1563 1563 1563